vendredi 02 novembre 2018

Vous pouvez trouver Le classement original sur : http://ultratiming.be  
 
LA LASNOISE BY NIGHT - LASNE
DISTANCE : 16.00 km
vendredi 02 novembre 2018
 
Place dos NOM Catégorie Pl/cat temps temps/km Vitesse
01:00:00              
1 680 DEMEULEMEESTER GUILLAUME SEH 1 1:04:00 04:00 15.00
2 9921 RIQUET BENJAMIN SEH 2 1:07:19 04:12 14.26
3 9922 THIRY SAMUEL SEH 3 1:07:19 04:12 14.26
4 676 DELVAUX LAURENT SEH 4 1:07:31 04:13 14.22
5 449 BERTHE BENOÎT SEH 5 1:07:33 04:13 14.21
6 9813 THOMAS JEAN-FRANÇOIS SEH 6 1:09:44 04:22 13.77
7 495 CORDIER MATHIAS SEH 7 1:10:16 04:24 13.66
8 526 DELECLUSE MARTIN SEH 8 1:14:56 04:41 12.81
9 9807 SOORS GREGORY SEH 9 1:15:04 04:42 12.79
10 1530 HURSON CYRIL V1H 1 1:15:12 04:42 12.77
11 9681 NAVEAU GUILLAUME SEH 10 1:15:21 04:43 12.74
12 1566 LENOBLE CLÉMENT SEH 11 1:15:36 04:44 12.70
13 9919 LE CLEF ALEXIS ESPH 1 1:15:50 04:44 12.66
14 9792 ROJO CEBRECOS IGNACIO V1H 2 1:16:18 04:46 12.58
15 1518 HENKENS ARNAUD SEH 12 1:16:26 04:47 12.56
16 9819 VALENTIN BAPTISTE ESPH 2 1:16:52 04:48 12.49
17 9849 VANHORICK BRUNO SEH 13 1:17:00 04:49 12.47
18 9917 VINCKENBOSCH JEAN-SEBASTIEN SEH 14 1:17:33 04:51 12.38
19 9761 PLASMANNE MAXIME SEH 15 1:17:41 04:51 12.36
20 9866 VILLET KEVIN SEH 16 1:17:53 04:52 12.33
21 1565 LEJEUNE AXEL ESPH 3 1:18:31 04:54 12.23
22 1521 HENQUINET QUENTIN SEH 17 1:18:40 04:55 12.20
23 1557 LE MOIGNIC VALENTIN ESPH 4 1:19:13 04:57 12.12
24 9755 PIENS ARNAUD SEH 18 1:19:20 04:58 12.10
25 319 ANCIAUX BENOÎT SEH 19 1:19:24 04:58 12.09
26 9671 MILAIRE JOHN SEH 20 1:20:24 05:01 11.94
27 1476 DUJARDIN JEAN-MICHEL V1H 3 1:21:01 05:04 11.85
28 444 BEGHIN OLIVIER SEH 21 1:21:14 05:05 11.82
29 447 BERGER MARC V2H 1 1:21:26 05:05 11.79
30 9841 VANDER STRICHT LOÏC SEH 22 1:21:26 05:05 11.79
31 9762 QUINAUX CHRISTOPHE V1H 4 1:21:29 05:06 11.78
32 9858 VERCAMMEN ARNAUD V1H 5 1:21:31 05:06 11.78
33 9864 VERSTAPPEN JEAN-PHILIPPE V1H 6 1:21:33 05:06 11.77
34 9690 PAUL EMMANUELLE SEF 1 1:21:44 05:07 11.75
35 9912 CHILIADE LUIGI V2H 2 1:22:13 05:08 11.68
36 9929 PIENS JEROME V1H 7 1:23:05 05:12 11.55
37 492 COPPIN HUGUES SEH 23 1:23:13 05:12 11.54
38 9753 PICHEL YVES SEH 24 1:24:49 05:18 11.32
39 1545 KINA PIERRE-EMMANUEL SEH 25 1:25:16 05:20 11.26
40 9906 KAMALIC YOURI SEH 26 1:25:38 05:21 11.21
41 9830 VAN HEUVERSWYN LIONEL SEH 27 1:25:54 05:22 11.18
42 446 BELLEMONT GREGORY SEH 28 1:26:14 05:23 11.13
43 9901 MAES JEAN-PHILIPPE V1H 8 1:27:01 05:26 11.03
44 9872 WERGIFOSSE THIERRY V1H 9 1:27:19 05:27 10.99
45 9939 LECLERCQ THOMAS V1H 10 1:27:19 05:27 10.99
46 1553 LAMBERT MAELLE SEF 2 1:27:39 05:29 10.95
47 9811 TERREUR BENOÎT V1H 11 1:28:02 05:30 10.90
48 1461 DI CATALDO MICHEL V2H 3 1:28:09 05:31 10.89
49 477 CAULLET OLIVIER V2H 4 1:28:24 05:32 10.86
50 9907 VERTRUYEN MARC V2H 5 1:28:27 05:32 10.85
51 456 BODART ANNE V1F 1 1:28:30 05:32 10.85
52 9931 EL HARCHI SAID V1H 12 1:28:57 05:34 10.79
53 487 CÔME MARIE-ALIX SEF 3 1:29:04 05:34 10.78
54 520 DECLERCK OLIVIER V1H 13 1:29:04 05:34 10.78
55 9834 VANDAM VINCENT V1H 14 1:29:25 05:35 10.74
56 679 DEMBLON DORIAN SEH 29 1:29:37 05:36 10.71
57 9658 MARTINS PAULO V1H 15 1:29:55 05:37 10.68
58 9752 PICCOLI BARBARA SEF 4 1:30:12 05:38 10.64
59 1543 JULIEN MATHIEU SEH 30 1:30:15 05:38 10.64
60 1499 GEDDA AUGUSTIN SEH 31 1:30:27 05:39 10.61
61 9683 NIJS YANNICK SEH 32 1:30:54 05:41 10.56
62 9692 PEIRELINCK GREET V2F 1 1:30:54 05:41 10.56
63 9816 TOUSSAINT MICHAEL SEH 33 1:31:01 05:41 10.55
64 1474 DUHOUX FRANCOIS V1H 16 1:31:02 05:41 10.55
65 465 BOUQUET PHILIPPE V3H 1 1:31:04 05:42 10.54
66 1523 HERINCKX ANTOINE SEH 34 1:31:10 05:42 10.53
67 9927 BOUDART JEAN-CHARLES SEH 35 1:31:17 05:42 10.52
68 9973 DUPUIS QUENTIN SEH 36 1:31:32 05:43 10.49
69 1458 DESMET XAVIER V2H 6 1:31:32 05:43 10.49
70 9676 MOTMANS GAËTAN SEH 37 1:31:33 05:43 10.49
71 9934 LAVRY OLIVIER SEH 38 1:31:44 05:44 10.47
72 9903 NOEL BENOIT SEH 39 1:31:44 05:44 10.47
73 1539 JEMINE EMILIE SEF 5 1:31:57 05:45 10.44
74 501 DAWANT JEREMIE SEH 40 1:31:57 05:45 10.44
75 452 BINARD JULIEN SEH 41 1:33:01 05:49 10.32
76 1473 DUGUE LUCIE SEF 6 1:33:20 05:50 10.29
77 9833 VAN VELTHEM RAPHAËL SEH 42 1:34:16 05:53 10.18
78 502 DE COCKER OLIVIA SEF 7 1:34:22 05:54 10.17
79 1525 HERPERS FABIEN V1H 17 1:34:51 05:56 10.12
80 9905 JENQUINNE FREDERIC SEH 43 1:35:31 05:58 10.05
81 9842 VANDERLINDEN THIERRY V2H 7 1:35:36 05:58 10.04
82 1547 KORASAK TECK V1H 18 1:35:54 06:00 10.01
83 479 CLAES KAREL SEH 44 1:36:11 06:01 9.98
84 509 DE NÈVE EDDY V1H 19 1:36:11 06:01 9.98
85 9938 SCHEIFF VINCENT SEH 45 1:36:15 06:01 9.97
86 9665 MATRAY GAUTIER SEH 46 1:36:34 06:02 9.94
87 9674 MONARD TANGUY SEH 47 1:36:49 06:03 9.92
88 9926 VAN ERTRRUGGEN JOHAN SEH 48 1:36:53 06:03 9.91
89 9932 BIESSAUX NICOLAS ESPH 5 1:37:10 06:04 9.88
90 9802 SCHOULEUR ADRIEN SEH 49 1:37:18 06:05 9.87
91 1478 DUVAL SABINE V1F 2 1:37:20 06:05 9.86
92 9909 BOUREZ SOPHIE SEF 8 1:37:30 06:06 9.85
93 9904 VANDERHAEGEN SAMUEL V1H 20 1:37:31 06:06 9.84
94 484 CLEPPE VINCENT V1H 21 1:37:39 06:06 9.83
95 1538 JANSSENS MICHÈLE V1F 3 1:38:20 06:09 9.76
96 1526 HEUCHAMPS LAURA SEF 9 1:38:31 06:09 9.74
97 9937 ODENT MAXIME SEH 50 1:38:48 06:10 9.72
98 455 BLANCKAERT IAN SEH 51 1:38:59 06:11 9.70
99 14 ABINO GREG V1H 22 1:39:14 06:12 9.67
100 9688 PÂRIS VIRGINIE SEF 10 1:39:24 06:13 9.66
101 1513 GUINEZ MARTINEZ VLADIMIR SEH 52 1:39:38 06:14 9.64
102 1456 DEREPPE JÉRÔME SEH 53 1:39:39 06:14 9.63
103 9930 BOUTEFEU MARC V2H 8 1:39:39 06:14 9.63
104 486 CLINQUART CHARLES SEH 54 1:39:40 06:14 9.63
105 9936 SUTTELS KRISTOF SEH 55 1:39:44 06:14 9.63
106 1512 GRUIELLE YANNICK V2H 9 1:40:08 06:15 9.59
107 9759 PLAQUET QUENTIN V3H 2 1:40:09 06:16 9.59
108 9843 VANDERPLAETSE VANESSA V1F 4 1:40:10 06:16 9.58
109 1551 LAMBERT ANTOINE SEH 56 1:40:24 06:16 9.56
110 9693 PEROO DAVID V1H 23 1:40:24 06:16 9.56
111 508 DE MOT ANTHONY SEH 57 1:40:32 06:17 9.55
112 9933 LEBLANC VICTOR ESPH 6 1:40:45 06:18 9.53
113 476 CAUDRON OLIVIER SEH 58 1:41:36 06:21 9.45
114 493 CORDENIER ARNAUD SEH 59 1:41:38 06:21 9.45
115 1527 HOTAT MICHEL V1H 24 1:41:42 06:21 9.44
116 9915 GILLE THOMAS SEH 60 1:41:53 06:22 9.42
117 9944 VERRIEST JONATHAN SEH 61 1:41:55 06:22 9.42
118 9840 VANDEPUTTE GAUTHIER SEH 62 1:42:25 06:24 9.37
119 9914 NICOLAS GUILLAUME SEH 63 1:42:27 06:24 9.37
120 9913 FONTENOY THIBAUT SEH 64 1:42:30 06:24 9.37
121 1498 GARREYN NICOLAS SEH 65 1:42:37 06:25 9.36
122 276 ALENÇON DIMITRI SEH 66 1:42:41 06:25 9.35
123 518 DECAMP MARTINE V3F 1 1:43:17 06:27 9.29
124 9796 ROPER NICOLAS V1H 25 1:43:29 06:28 9.28
125 481 CLAEYS LIONEL SEH 67 1:43:30 06:28 9.28
126 474 CARLOT SÉBASTIEN SEH 68 1:43:37 06:29 9.26
127 9794 RONDOU PHILIPPE V2H 10 1:43:53 06:30 9.24
128 9910 CHAMPION ALAN V3H 3 1:44:05 06:30 9.22
129 9673 MONARD LOÏC SEH 69 1:44:13 06:31 9.21
130 9942 LARMUSEAU STEFANIE V1F 5 1:44:16 06:31 9.21
131 9911 VANELSTLANDE OLIVIER V2H 11 1:44:29 06:32 9.19
132 1564 LEJEUNE ALAIN V2H 12 1:44:36 06:32 9.18
133 1490 FOCAN MURIEL V1F 6 1:44:53 06:33 9.15
134 491 COPPENS ANNE SOPHIE SEF 11 1:44:54 06:33 9.15
135 9943 SOKOLOVSKA IVANA V1F 7 1:44:54 06:33 9.15
136 677 DEMARET NATHALIE SEF 12 1:44:59 06:34 9.14
137 9760 PLASMAN PIERRE SEH 70 1:45:12 06:34 9.13
138 9756 PIETTE AMANDINE SEF 13 1:45:12 06:34 9.13
139 9689 PASUCH PABLO SEH 71 1:45:21 06:35 9.11
140 9924 BASOT JULIEN SEH 72 1:46:00 06:37 9.06
141 9870 VREVEN LAURENT V1H 26 1:48:00 06:45 8.89
142 9925 LEGROS FRANCOIS V2H 13 1:48:05 06:45 8.88
143 1460 DEWAEL PHILIPPE V3H 4 1:48:52 06:48 8.82
144 9826 VAN DER STRATEN WAILLET ALEXIA SEF 14 1:49:04 06:49 8.80
145 503 DE CONINCK ADRIEN SEH 73 1:49:04 06:49 8.80
146 9694 PETIT ANNICK V1F 8 1:49:09 06:49 8.80
147 9902 BRIFFAUX ANTOINE V1H 27 1:49:18 06:50 8.78
148 464 BOSERET SÉBASTIEN V1H 28 1:49:19 06:50 8.78
149 1529 HUREZ AMANDINE SEF 15 1:49:22 06:50 8.78
150 9923 SCOUPPE GERY V2H 14 1:49:27 06:50 8.77
151 9805 SERVAIS VIRGINIE V1F 9 1:49:29 06:51 8.77
152 9797 ROUSSELLE ISABELLE V1F 10 1:49:51 06:52 8.74
153 9848 VANHOOLANT OCÉANE SEF 16 1:50:22 06:54 8.70
154 1524 HERINCKX EDOUARD SEH 74 1:50:28 06:54 8.69
155 522 DEKAN ISABELLE V1F 11 1:50:37 06:55 8.68
156 488 COMPÈRE ARNAUD V1H 29 1:50:38 06:55 8.68
157 9677 MOUTTEAU PHILIPPE V1H 30 1:50:46 06:55 8.67
158 9859 VEREECKEN FRANK V2H 15 1:54:53 07:11 8.36
159 9860 VEREECKEN RAFAEL ESPH 7 1:54:53 07:11 8.36
160 1506 GILLIOT ALAIN V2H 16 1:54:55 07:11 8.35
161 1485 FERRACIN THIERRY V1H 31 1:55:54 07:15 8.28
162 209 ADAMS FABIENNE V1F 12 1:56:12 07:16 8.26
163 1516 HANNET STÉPHANIE V1F 13 1:56:12 07:16 8.26
164 1452 DENEEF CARINE V1F 14 1:59:33 07:28 8.03
165 1507 GILQUIN AUDE V1F 15 1:59:35 07:28 8.03
166 9836 VANDEMEULEBROEK MARGOTTE SEF 17 2:01:48 07:37 7.88
167 9916 FOCANT CLAUDY SEH 75 2:01:48 07:37 7.88
168 1486 FLAGOTHIER CÉLINE SEF 18 2:01:49 07:37 7.88
169 9920 LEGRAND CAROLINE SEF 19 2:02:03 07:38 7.87
170 1569 LION THOMAS SEH 76 2:02:45 07:40 7.82
171 9827 VAN DOREN MELISSA SEF 20 2:02:53 07:41 7.81
172 1475 DUIKERS JONATHAN SEH 77 2:02:54 07:41 7.81
173 1487 FLAMANT DAVID SEH 78 2:03:08 07:42 7.80
174 9839 VANDEPERRE ALICE V1F 16 2:03:58 07:45 7.74
175 517 DEBROUX CHRISTOPHE SEH 79 2:03:58 07:45 7.74
176 9958 BOREUX PAULINE ESPF 1 2:04:00 07:45 7.74
177 483 CLEIREN OLIVIER SEH 80 2:04:01 07:45 7.74
178 1558 LEBACQ MARC V3H 5 2:05:04 07:49 7.68
179 9868 VOISIN BÉNÉDICT V1H 32 2:05:38 07:51 7.64
180 1465 DOBRINIC MAJA SEF 21 2:07:15 07:57 7.54
181 9678 MUS LAURENCE V1F 17 2:09:35 08:06 7.41
182 9668 MEUREY NOÉMI ESPF 2 2:10:06 08:08 7.38
183 9908 POLHEZ STEPHANE V1H 33 2:12:36 08:17 7.24
184 443 BARTHOLOMEEUSEN ANNELIES SEF 22 2:16:35 08:32 7.03
185 9856 VASAPOLLI MARILINA SEF 23 2:17:13 08:35 7.00
186 1483 FABRIS JONATHAN SEH 81 2:17:13 08:35 7.00
187 9875 WOUE VIRGINIE SEF 24 2:17:22 08:35 6.99
188 9876 WOUE DIANE SEF 25 2:17:22 08:35 6.99
189 523 DELATTRE ALEXANDRE SEH 82 2:17:24 08:35 6.99
190 460 BONTE GUILLAUME SEH 83 2:22:01 08:53 6.76
191 1511 GRAVY JULIE SEF 26 2:22:31 08:54 6.74
192 504 DE GUCHTENAERE TIM SEH 84 2:23:29 08:58 6.69
193 9877 WOUTERS EMMA SEF 27 2:23:31 08:58 6.69
194 9853 VANRAES KRISTEL SEF 28 2:23:36 08:59 6.69